Fryeburg, ME

7:20 PM EST on February 06, 2016 (GMT -0500)
Eastern Slopes Regional

Weather History for KIZG - December, 2012

Change the Weather History Date:

Saturday, December 8, 2012

  Actual Average Record
Temperature  
Mean Temperature 32 °F -  
Max Temperature 36 °F 36 °F 48 °F (1999)
Min Temperature 28 °F 16 °F -5 °F (2000)
Degree Days  
Heating Degree Days 33    
Moisture  
Dew Point 31 °F    
Average Humidity 97    
Maximum Humidity 100    
Minimum Humidity 89    
Precipitation  
Precipitation 0.07 in - - ()
Sea Level Pressure  
Sea Level Pressure 29.94 in    
Wind  
Wind Speed 0 mph (SW)    
Max Wind Speed 4 mph    
Max Gust Speed -    
Visibility 4 miles    
Events Fog , Rain    
Averages and records for this station are not official NWS values.
T = Trace of Precipitation, MM = Missing Value Source: NWS Daily Summary

Daily Weather History Graph

Daily Weather History Graph

Search for Another Location

Airport or City:

Trip Planner

Search our weather history database for the weather conditions in past years. The results will help you decide how hot, cold, wet, or windy it might be!

Date:

Astronomy

Dec. 08, 2012 Rise Set
Actual Time 7:06 AM EST 4:05 PM EST
Civil Twilight 6:33 AM EST 4:38 PM EST
Nautical Twilight 5:56 AM EST 5:14 PM EST
Astronomical Twilight 5:21 AM EST 5:49 PM EST
Moon 1:18 AM EST (12/8) 12:42 PM EST (12/8)
Length of Visible Light 10h 05m
Length of Day
8h 59m
Waning Crescent, 28% of the Moon is Illuminated
Dec 8
Waning Crescent
Dec 13
New
Dec 20
First Quarter
Dec 28
Full
Jan 4
Last Quarter

Hourly Weather History & Observations

Time (EST) Temp. Windchill Dew Point Humidity Pressure Visibility Wind Dir Wind Speed Gust Speed Precip Events Conditions
12:54 AM 32.0 °F - 30.9 °F 96% 30.04 in 5.0 mi Calm Calm - N/A   Overcast
1:54 AM 32.0 °F - 32.0 °F 100% 30.04 in 6.0 mi Calm Calm - N/A   Overcast
2:54 AM 30.0 °F - 28.9 °F 96% 30.02 in 3.0 mi Calm Calm - N/A   Clear
3:01 AM 30.2 °F - 28.4 °F 93% 30.01 in 2.5 mi Calm Calm - N/A   Clear
3:09 AM 30.2 °F - 28.4 °F 93% 30.01 in 3.0 mi Calm Calm - N/A   Clear
3:30 AM 28.4 °F - 28.4 °F 100% 30.01 in 1.8 mi Calm Calm - N/A   Scattered Clouds
3:38 AM 28.4 °F - 28.4 °F 100% 30.01 in 1.0 mi Calm Calm - N/A   Mostly Cloudy
3:42 AM 28.4 °F - 28.4 °F 100% 30.01 in 2.0 mi Calm Calm - N/A   Mostly Cloudy
3:50 AM 28.4 °F - 28.4 °F 100% 30.01 in 4.0 mi Calm Calm - N/A   Overcast
3:54 AM 28.9 °F - 28.0 °F 96% 30.02 in 5.0 mi Calm Calm - N/A   Overcast
4:54 AM 28.0 °F - 28.0 °F 100% 30.03 in 5.0 mi Calm Calm - N/A   Scattered Clouds
5:54 AM 28.9 °F - 28.0 °F 96% 30.04 in 9.0 mi Calm Calm - 0.00 in   Overcast
6:54 AM 30.0 °F - 30.0 °F 100% 30.04 in 7.0 mi Calm Calm - 0.00 in   Overcast
7:26 AM 30.2 °F - 30.2 °F 100% 30.02 in 5.0 mi Calm Calm - 0.01 in Rain Light Freezing Rain
7:54 AM 32.0 °F - 30.9 °F 96% 30.03 in 3.0 mi Calm Calm - 0.01 in Rain Light Freezing Rain
8:36 AM 32.0 °F - 32.0 °F 100% 30.00 in 4.0 mi Calm Calm - 0.00 in   Overcast
8:54 AM 32.0 °F - 32.0 °F 100% 30.02 in 5.0 mi Calm Calm - 0.00 in   Overcast
9:54 AM 33.1 °F - 32.0 °F 96% 30.02 in 7.0 mi Calm Calm - 0.01 in Rain Light Rain
10:54 AM 34.0 °F - 33.1 °F 96% 29.99 in 5.0 mi Calm Calm - 0.03 in Rain Light Rain
11:05 AM 33.8 °F - 33.8 °F 100% 29.96 in 6.0 mi Calm Calm - 0.00 in Rain Light Rain
11:17 AM 33.8 °F - 32.0 °F 93% 29.96 in 7.0 mi Calm Calm - 0.00 in Rain Light Rain
11:54 AM 35.1 °F - 33.1 °F 92% 29.96 in 9.0 mi Calm Calm - 0.01 in Rain Light Rain
12:54 PM 36.0 °F - 33.1 °F 89% 29.92 in 10.0 mi Calm Calm - 0.01 in   Overcast
1:54 PM 36.0 °F - 33.1 °F 89% 29.91 in 10.0 mi Calm Calm - N/A   Overcast
2:54 PM 36.0 °F - 33.1 °F 89% 29.89 in 10.0 mi Calm Calm - N/A   Overcast
3:54 PM 36.0 °F - 34.0 °F 93% 29.89 in 10.0 mi Calm Calm - N/A   Overcast
4:54 PM 35.1 °F - 34.0 °F 96% 29.89 in 4.0 mi Calm Calm - N/A   Overcast
5:54 PM 35.1 °F 32.2 °F 34.0 °F 96% 29.90 in 4.0 mi SW 3.5 mph - N/A   Overcast
6:54 PM 35.1 °F - 34.0 °F 96% 29.88 in 10.0 mi Calm Calm - N/A   Overcast
8:12 PM 35.6 °F - 33.8 °F 93% 29.86 in 10.0 mi Calm Calm - N/A   Overcast
8:32 PM 33.8 °F - 33.8 °F 100% 29.86 in 5.0 mi Calm Calm - N/A   Scattered Clouds
8:47 PM 33.8 °F - 32.0 °F 93% 29.86 in 1.8 mi Calm Calm - N/A   Partly Cloudy
8:52 PM 33.8 °F - 32.0 °F 93% 29.86 in 2.0 mi Calm Calm - N/A   Scattered Clouds
8:54 PM 32.0 °F - 32.0 °F 100% 29.88 in 2.0 mi Calm Calm - N/A   Scattered Clouds
8:59 PM 32.0 °F - 32.0 °F 100% 29.86 in 2.5 mi Calm Calm - N/A   Mostly Cloudy
9:15 PM 30.2 °F - 30.2 °F 100% 29.86 in 1.5 mi Calm Calm - N/A   Overcast
9:24 PM 33.8 °F - 32.0 °F 93% 29.86 in 2.0 mi Calm Calm - N/A   Overcast
9:54 PM 32.0 °F - 32.0 °F 100% 29.88 in 2.5 mi Calm Calm - N/A   Overcast
10:19 PM 32.0 °F - 32.0 °F 100% 29.86 in 1.5 mi Calm Calm - N/A   Overcast
10:37 PM 30.2 °F - 30.2 °F 100% 29.87 in 1.5 mi Calm Calm - N/A   Overcast
10:44 PM 30.2 °F - 30.2 °F 100% 29.87 in 3.0 mi Calm Calm - N/A   Overcast
10:54 PM 30.9 °F - 30.9 °F 100% 29.89 in 4.0 mi Calm Calm - N/A   Overcast
11:15 PM 30.2 °F - 30.2 °F 100% 29.88 in 2.0 mi Calm Calm - N/A   Overcast
11:24 PM 30.2 °F - 30.2 °F 100% 29.87 in 0.5 mi Calm Calm - N/A Fog Light Freezing Fog
11:31 PM 30.2 °F - 30.2 °F 100% 29.87 in 0.2 mi Calm Calm - N/A Fog Light Freezing Fog
11:54 PM 30.9 °F - 28.9 °F 92% 29.90 in 0.2 mi Calm Calm - N/A Fog Light Freezing Fog